Preview of NWS' New Version of Forecast
This preview is not operational and should not be used for support decisions.

Regional Weather Roundup (RWR)

Issued by National Weather Service (NWS)

                            
000
ASUS45 KBOU 190810
RWRCO 

WEATHER ROUNDUP FOR COLORADO
NATIONAL WEATHER SERVICE DENVER/BOULDER CO
100 AM MST TUE FEB 19 2019

NOTE: "FAIR" INDICATES FEW OR NO CLOUDS BELOW 12000 FEET WITH NO
SIGNIFICANT WEATHER AND/OR OBSTRUCTIONS TO VISIBILITY.

COZ001>005-013-030-031-190900-
...NORTHWEST COLORADO...
  
CITY           SKY/WX    TMP DP  RH WIND       PRES   REMARKS
CRAIG          FLURRIES   8   4  83 SW9       29.87S WCI  -5          
HAYDEN         LGT SNOW   9   6  88 W6        29.86S FOG     WCI  -1  
MEEKER         CLOUDY    14   7  73 N7        29.84S WCI   4          
RANGELY        CLOUDY    16   9  72 CALM      29.91S                  
RABBIT EARS PA LGT SNOW   9   5  85 MISG      29.66S                  
STEAMBOAT SPGS CLOUDY    11   8  89 CALM      29.82S                  
WALDEN         CLOUDY     7   1  78 CALM      29.76S                  
$$

COZ006>008-011-190900-
...WEST CENTRAL VALLEYS...
  
CITY           SKY/WX    TMP DP  RH WIND       PRES   REMARKS
GRAND JUNCTION CLOUDY    25  22  88 N12       29.84F WCI  14          
MONTROSE       CLOUDY    25  22  88 NW5       29.83F WCI  19          
EAGLE          CLOUDY    18  15  88 E3        29.81S                  
RIFLE          CLOUDY    23  13  65 VRB3      29.82F                  
DELTA          CLOUDY    28  25  87 CALM      29.84F                  
NUCLA          CLOUDY    25  19  80 NW3       29.85F                  
$$

COZ017>023-064>068-190900-
...SOUTHWEST COLORADO...
  
CITY           SKY/WX    TMP DP  RH WIND       PRES   REMARKS
DURANGO        LGT SNOW  20  20 100 CALM      29.80S FOG              
CORTEZ         CLOUDY    16  13  88 SE5       29.82F WCI   9          
PAGOSA SPRINGS LGT SNOW  21  21  99 SE5       29.78S WCI  14          
TELLURIDE      FLURRIES  14  12  92 SW3       29.74S                  
WOLF CREEK PAS CLOUDY     5   3  92 S14G26    29.70F WCI -12          
$$

COZ009-010-012-014-032>034-037-058>063-190900-
...CENTRAL COLORADO...
  
CITY           SKY/WX    TMP DP  RH WIND       PRES   REMARKS
ASPEN          CLOUDY    16  10  77 CALM      29.73F                  
BUENA VISTA    LGT SNOW   7   4  85 CALM      29.83F VSB 1            
COPPER MTN     CLOUDY     9   1  72 SE6       29.63F WCI  -1          
BERTHOUD PASS  CLOUDY     1  -9  60 S10G20    29.64F WCI -14          
COTTONWOOD PAS LGT SNOW   7   3  85 CALM      29.73F                  
GUNNISON       LGT SNOW  15  13  91 CALM      29.76F FOG              
GRANBY         CLOUDY     9   2  75 SE3       29.76S                  
KREMMLING      MOCLDY    10   9  92 CALM      29.79S                  
LEADVILLE      LGT SNOW   4   1  88 CALM      29.69F FOG              
MONARCH PASS   CLOUDY     7   1  78 MISG      29.76F                  
SALIDA         CLOUDY     8   4  84 SE8       29.92F WCI  -4          
SUNLIGHT       LGT SNOW   9   3  78 S5        29.72F VSB 1   WCI   0  
WILKERSON PASS LGT SNOW   7   1  78 SW6       29.71F WCI  -3          
$$

COZ069>075-190900-
...SAN LUIS VALLEY/SANGRE DE CRISTO MOUNTAINS...
  
CITY           SKY/WX    TMP DP  RH WIND       PRES   REMARKS
ALAMOSA        CLOUDY    18  13  80 SE13      29.79F WCI   5          
DEL NORTE      NOT AVBL                                               
LA VETA PASS   NOT AVBL                                               
SAGUACHE       LGT SNOW  19  18  93 CALM      29.79F                  
$$

COZ035-036-038>040-190900-
...NORTHERN COLORADO FRONT RANGE...
  
CITY           SKY/WX    TMP DP  RH WIND       PRES   REMARKS
DENVER INTL AP FLURRIES  14   8  77 S13       29.95F WCI   0          
AURORA         MOCLDY    13   7  76 S14       29.95F WCI  -2          
FRONT RANGE AP NOT AVBL                                               
ERIE MUNI ARPT CLOUDY    15   9  76 CALM      30.04F                  
BOULDER MUN AP FLURRIES  16  10  79 NE5       29.97S WCI   9          
CENTENNIAL     CLOUDY    12   6  77 S14       29.93F WCI  -3          
BROOMFIELD     CLOUDY    16  12  86 CALM      29.95F                  
FORT COLLINS   CLOUDY    13   6  74 E7        30.00F WCI   3          
LONGMONT       CLOUDY    17   8  70 NE3       30.00F                  
$$

COZ041-046-047-076>085-087-088-190900-
...PIKES PEAK/PALMER DIVIDE AND SOUTHERN FOOTHILLS...
  
CITY           SKY/WX    TMP DP  RH WIND       PRES   REMARKS
COLO. SPRINGS  LGT SNOW   7   4  87 SE7       29.96F FOG     WCI  -5  
A. F. ACADEMY  CLOUDY     6   2  84 S9        29.91F WCI  -8          
SCHRIEVER AFB  NOT AVBL                                               
CHEYENNE MTN   LGT SNOW   3   1  92 N5        29.84F WCI  -6          
ELLICOTT       NOT AVBL                                               
FALCON         LGT SNOW   6   2  84 S8        29.92F WCI  -7          
FORT CARSON    FLURRIES   8   4  85 CALM      29.96F                  
LIMON          LGT SNOW   9   7  92 S18G24    30.01F FOG     WCI -10  
MONUMENT HILL  CLOUDY     5   1  85 SW9       29.88F WCI  -9          
CANON CITY     LGT SNOW  12   9  85 CALM      30.00F                  
WALSENBURG     NOT AVBL                                               
TRINIDAD       FAIR       5   2  87 N5        29.96F WCI  -4          
$$

COZ042>045-048>051-090-091-190900-
...NORTHEAST COLORADO...
  
CITY           SKY/WX    TMP DP  RH WIND       PRES   REMARKS
GREELEY ARPT   CLOUDY    14   7  73 E9        30.02F WCI   2          
AKRON          LGT SNOW  12  10  92 SE16      30.06F FOG     WCI  -5  
BURLINGTON     CLOUDY    14  11  87 SE15      30.15F FOG     WCI  -1  
WRAY           LGT SNOW  14  12  92 SE13      30.19F WCI   0          
YUMA           FLURRIES  12  10  92 SE13      30.14S WCI  -3          
STERLING       FLURRIES  16  12  86 SE6       30.11F WCI   7          
HOLYOKE        LGT SNOW  14  10  85 SE12      30.20S WCI   0          
FORT MORGAN      N/A     14   7  73 SE13      30.06F WCI   0          
$$

COZ086-089-092>099-190900-
...SOUTHEAST COLORADO...
  
CITY           SKY/WX    TMP DP  RH WIND       PRES   REMARKS
PUEBLO         LGT SNOW  14  10  84 N5        30.05F FOG     WCI   6  
LA JUNTA       CLOUDY    17  12  80 SE18      30.10F WCI   1          
LAMAR          FAIR      12   8  84 MISG      30.16F                  
SPRINGFIELD      N/A      8   6  92 SE8       30.14S WCI  -4          
$$